Location: Carrières
(48.9495°N, 2.0407°E)
Time: 05:04:26
(UTC+00:00)

Vanguard 1 Rocket - Pass Details

Date: 14 April 2024
Orbit: 650 x 4220 km, 34.3° (Epoch: 27 May)

Event Time Altitude Azimuth Distance (km) Brightness Sun altitude
Rises 00:48:07 0° 266° (W) 5,090 11.0 -30.2°
Enters shadow 00:51:04 - 258° (WSW) 4,559 10.7 -30.1°
Exits shadow 01:11:49 23° 164° (SSE) 5,504 10.9 -28.9°
Drops below altitude 10° 01:20:33 10° 148° (SSE) 7,095 11.6 -28.4°
Sets 01:27:41 0° 140° (SE) 8,376 12.1 -27.9°
